Effective Sunday, March 17, 2024, the National Weather Service National Data Buoy Center will discontinue its Dial-A-Buoy Interactive Voice Response system. For more information, see Service Change Notice 24-06 (PDF).

Station JMPN7 - 8658163 - Wrightsville Beach, NC Image indicating link to RSS feed of recent meteorological observations for station JMPN7


Conditions at JMPN7 as of
(10:30 pm EST on 02/21/2024)
0330 GMT on 02/22/2024:
     

Click on the graph icon in the table below to see a time series plot of the last five days of that observation.

5-day plot - Wind Direction Wind Direction (WDIR): N ( 10 deg true )
5-day plot - Wind Speed Wind Speed (WSPD): 5.1 kts
5-day plot - Wind Gust Wind Gust (GST): 6.0 kts
5-day plot - Atmospheric Pressure Atmospheric Pressure (PRES):30.22 in
5-day plot - Air Temperature Air Temperature (ATMP): 47.8 °F
5-day plot - Water Temperature Water Temperature (WTMP): 52.5 °F
5-day plot - Wind Chill Wind Chill (CHILL): 45.1 °F
5-day plot - Wind Speed at 10 Meters Wind Speed at 10 meters (WSPD10M): 5.8 kts
5-day plot - Wind Speed at 20 Meters Wind Speed at 20 meters (WSPD20M): 5.8 kts
5-day plot -  Wind Speed, Wind Gust and Atmospheric Pressure Combined plot of Wind Speed, Gust, and Air Pressure
NOS Water Level Observation Network Water Level
Previous observations
TIME
(EST)
5-day plot - Wind Direction
WDIR
 
5-day plot - Wind Speed
WSPD
kts
5-day plot - Wind Gust
GST
kts
5-day plot - Wave Height
WVHT
ft
5-day plot - Dominant Wave Period
DPD
sec
5-day plot - Average Wave Period
APD
sec
5-day plot - Mean Wave Direction
MWD
 
5-day plot - Atmospheric Pressure
PRES
in
5-day plot - Pressure Tendency
PTDY
in
5-day plot - Air Temperature
ATMP
°F
5-day plot - Water Temperature
WTMP
°F
5-day plot - Dew Point
DEWP
°F
5-day plot - Salinity
SAL
psu
5-day plot - Visibility
VIS
nmi
5-day plot - Tide (above MLLW)
TIDE
ft
2024-02-21 10:24 pm N 5.1 6.0----30.22- 48.4 52.5----
2024-02-21 10:18 pm N 6.0 7.0----30.22- 48.4 52.7----
2024-02-21 10:12 pm N 5.1 7.0----30.22- 48.4 52.7----
2024-02-21 10:06 pm N 5.1 6.0----30.22- 48.0 52.7----
2024-02-21 10:00 pm N 5.1 7.0----30.22+0.01 47.8 52.9----
2024-02-21 09:54 pm N 5.1 6.0----30.22- 47.5 52.9----
2024-02-21 09:48 pm N 5.1 7.0----30.22- 48.2 52.7----
2024-02-21 09:42 pm N 6.0 7.0----30.22- 48.7 52.7----
2024-02-21 09:36 pm N 6.0 7.0----30.22- 48.9 52.7----
2024-02-21 09:30 pm N 6.0 7.0----30.22- 49.1 52.7----
2024-02-21 09:24 pm N 7.0 7.0----30.22- 49.6 52.7----
2024-02-21 09:18 pmNNE 6.0 9.9----30.22- 50.0 52.9----
2024-02-21 09:12 pmNNE 7.0 8.9----30.22- 50.2 53.1----
2024-02-21 09:06 pmNNE 4.1 6.0----30.22- 50.2 53.1----
2024-02-21 09:00 pm N 4.1 6.0----30.22+0.02 50.5 52.9----
2024-02-21 08:54 pmNNE 4.1 6.0----30.22- 50.7 52.9----
2024-02-21 08:48 pmNNE 4.1 5.1----30.22- 51.1 52.9----
2024-02-21 08:42 pmNNE 4.1 5.1----30.22- 51.3 52.9----
2024-02-21 08:36 pmNNE 5.1 6.0----30.21- 51.4 52.9----
2024-02-21 08:30 pmNNE 5.1 6.0----30.21- 51.4 52.9----
2024-02-21 08:24 pm NE 6.0 7.0----30.21- 51.6 52.9----
2024-02-21 08:18 pmENE 5.1 6.0----30.21- 51.4 53.1----
2024-02-21 08:12 pmENE 4.1 5.1----30.21- 50.9 53.1----
2024-02-21 08:06 pmNNE 5.1 8.0----30.21- 50.5 53.1----
2024-02-21 08:00 pm N 6.0 7.0----30.21+0.00 51.3 53.1----
2024-02-21 07:54 pm N 5.1 7.0----30.21- 50.7 53.1----
2024-02-21 07:48 pm N 5.1 7.0----30.21- 50.9 53.1----
2024-02-21 07:42 pm N 5.1 6.0----30.22- 50.9 53.1----
2024-02-21 07:36 pmNNW 5.1 6.0----30.22- 50.9 53.1----
2024-02-21 07:30 pmNNW 5.1 6.0----30.22- 51.1 53.1----
2024-02-21 07:24 pmNNW 5.1 6.0----30.22- 51.3 53.1----
2024-02-21 07:18 pm NW 4.1 6.0----30.22- 51.4 53.1----
2024-02-21 07:12 pmNNW 5.1 6.0----30.22- 52.0 53.1----
2024-02-21 07:06 pmNNW 5.1 6.0----30.21- 52.2 53.1----
2024-02-21 07:00 pmNNW 5.1 7.0----30.21+0.00 52.3 53.1----
2024-02-21 06:54 pm N 6.0 7.0----30.21- 52.9 53.1----
2024-02-21 06:48 pm N 7.0 9.9----30.20- 53.4 53.1----
2024-02-21 06:42 pm N 7.0 8.9----30.21- 53.6 53.2----
2024-02-21 06:36 pm N 6.0 8.9----30.20- 53.6 53.2----
2024-02-21 06:30 pm N 7.0 8.0----30.20- 54.0 53.2----
2024-02-21 06:24 pm N 7.0 8.9----30.20- 54.1 53.2----
2024-02-21 06:00 pmNNE 9.9 12.0----30.19-0.02 55.2 53.2----
2024-02-21 05:54 pmNNE 9.9 11.1----30.19- 55.4 53.2----
2024-02-21 05:48 pmNNE 9.9 11.1----30.20- 55.6 53.2----
2024-02-21 05:42 pmNNE 8.9 11.1----30.20- 55.9 53.2----
2024-02-21 05:36 pmNNE 8.9 9.9----30.20- 56.3 53.4----
2024-02-21 05:30 pm N 8.9 11.1----30.20- 56.7 53.4----
2024-02-21 05:24 pmNNE 8.9 11.1----30.20- 56.7 53.4----
2024-02-21 05:18 pmNNE 9.9 12.0----30.20- 56.5 53.4----
2024-02-21 05:12 pmNNE 9.9 14.0----30.20- 56.8 53.4----
2024-02-21 05:06 pmNNE 9.9 11.1----30.20- 56.3 53.4----
2024-02-21 05:00 pmNNE 9.9 12.0----30.20-0.02 57.0 53.4----
2024-02-21 04:54 pmNNE 9.9 11.1----30.19- 57.0 53.4----
2024-02-21 04:48 pm N 6.0 11.1----30.19- 57.9 53.4----
2024-02-21 04:42 pm N 8.9 12.0----30.19- 57.7 53.4----
2024-02-21 04:36 pmNNE 7.0 13.0----30.20- 57.4 53.4----
2024-02-21 04:30 pm N 8.9 13.0----30.20- 57.7 53.4----
2024-02-21 04:24 pmNNE 6.0 12.0----30.20- 57.6 53.4----
2024-02-21 04:18 pmNNE 9.9 12.0----30.20- 57.6 53.4----
2024-02-21 04:12 pm N 8.9 11.1----30.21- 57.7 53.4----
2024-02-21 04:06 pm N 8.9 15.9----30.21- 57.7 53.4----
2024-02-21 04:00 pm N 11.1 12.0----30.20-0.04 57.4 53.4----
2024-02-21 03:54 pm N 8.9 12.0----30.21- 57.7 53.2----
2024-02-21 03:48 pm N 8.0 15.0----30.21- 57.9 53.2----
2024-02-21 03:42 pm N 7.0 12.0----30.21- 57.7 53.4----
2024-02-21 03:36 pm N 9.9 11.1----30.21- 57.6 53.2----
2024-02-21 03:30 pm N 8.9 13.0----30.21- 57.7 53.4----
2024-02-21 03:24 pm N 8.9 12.0----30.21- 57.4 53.4----
2024-02-21 03:18 pm N 9.9 12.0----30.21- 57.4 53.4----
2024-02-21 03:12 pm N 11.1 14.0----30.21- 57.4 53.4----
2024-02-21 03:06 pm N 8.9 12.0----30.21- 57.6 53.4----
2024-02-21 03:00 pm N 8.0 14.0----30.21-0.07 57.2 53.4----
2024-02-21 02:54 pmNNW 7.0 12.0----30.21- 57.9 53.2----
2024-02-21 02:48 pm N 11.1 13.0----30.21- 57.4 53.2----
2024-02-21 02:42 pmNNW 8.9 14.0----30.21- 57.4 53.2----
2024-02-21 02:36 pm N 7.0 9.9----30.21- 56.5 53.2----
2024-02-21 02:30 pmNNE 8.0 11.1----30.21- 55.9 53.2----
2024-02-21 02:24 pm N 11.1 17.1----30.21- 56.5 53.1----
2024-02-21 02:18 pm N 8.9 12.0----30.22- 56.1 53.2----
2024-02-21 02:12 pm N 8.0 15.9----30.22- 56.3 53.1----
2024-02-21 02:06 pmNNE 12.0 14.0----30.22- 55.6 52.9----
2024-02-21 02:00 pmNNE 13.0 15.0----30.22-0.08 55.6 52.9----
2024-02-21 01:54 pm N 12.0 15.9----30.22- 55.8 52.7----
2024-02-21 01:48 pm N 12.0 15.9----30.23- 55.6 52.7----
2024-02-21 01:42 pm N 13.0 15.9----30.23- 55.4 52.7----
2024-02-21 01:36 pm N 12.0 15.0----30.24- 55.4 52.7----
2024-02-21 01:30 pm N 11.1 14.0----30.24- 55.2 52.7----
2024-02-21 01:24 pm N 11.1 15.9----30.24- 55.0 52.5----
2024-02-21 01:18 pm N 12.0 15.0----30.24- 55.0 52.7----
2024-02-21 01:12 pm N 12.0 15.0----30.24- 54.7 52.7----
2024-02-21 01:06 pm N 13.0 15.0----30.24- 54.5 52.5----
2024-02-21 01:00 pm N 12.0 14.0----30.25-0.07 54.7 52.5----
2024-02-21 12:54 pm N 8.0 13.0----30.25- 54.9 52.3----
2024-02-21 12:48 pmNNE 13.0 15.9----30.25- 53.4 52.3----
2024-02-21 12:42 pmNNE 13.0 18.1----30.25- 53.2 52.3----
2024-02-21 12:36 pmNNE 13.0 17.1----30.26- 53.1 52.3----
2024-02-21 12:30 pmNNE 15.9 18.1----30.26- 52.9 52.3----
2024-02-21 12:24 pmNNE 13.0 19.0----30.27- 52.7 52.5----
2024-02-21 12:18 pm N 12.0 17.1----30.27- 52.9 52.5----
2024-02-21 12:12 pm N 12.0 15.9----30.27- 53.2 52.3----
2024-02-21 12:06 pm N 12.0 18.1----30.28- 52.7 52.3----
2024-02-21 12:00 pm N 14.0 15.9----30.28-0.04 52.5 52.2----
2024-02-21 11:54 am N 13.0 19.0----30.28- 52.5 52.2----
2024-02-21 11:48 am N 15.9 19.0----30.28- 51.8 52.2----
2024-02-21 11:42 am N 11.1 18.1----30.29- 52.2 52.3----
2024-02-21 11:36 am N 15.0 18.1----30.29- 51.6 52.3----
2024-02-21 11:30 am N 11.1 15.9----30.29- 52.0 52.3----
2024-02-21 11:24 am N 13.0 18.1----30.30- 51.8 52.2----
2024-02-21 11:18 amNNW 12.0 19.0----30.30- 51.3 52.2----
2024-02-21 11:12 amNNW 14.0 15.9----30.30- 50.9 52.2----
2024-02-21 11:06 am N 12.0 18.1----30.30- 50.7 52.0----
2024-02-21 11:00 amNNW 13.0 17.1----30.30-0.01 50.5 52.2----
2024-02-21 10:54 amNNW 14.0 17.1----30.30- 50.0 52.0----
2024-02-21 10:48 am N 12.0 15.9----30.31- 49.6 52.2----
2024-02-21 10:42 am N 13.0 19.0----30.30- 48.7 52.2----
2024-02-21 10:36 am N 15.9 20.0----30.31- 48.2 52.0----
2024-02-21 10:30 am N 14.0 17.1----30.30- 47.8 52.0----
2024-02-21 10:24 am N 15.0 19.0----30.31- 47.5 52.0----
2024-02-21 10:18 amNNW 15.0 20.0----30.31- 47.3 52.2----
2024-02-21 10:12 amNNW 14.0 17.1----30.32- 46.8 52.3----
2024-02-21 10:06 am N 14.0 18.1----30.32- 46.2 52.0----
2024-02-21 10:00 am N 14.0 19.0----30.32+0.02- 52.0----
2024-02-21 09:54 am N 13.0 19.0----30.32-- 51.8----
2024-02-21 09:48 am N 13.0 19.0----30.32- 45.1 52.0----
2024-02-21 09:42 am N 14.0 17.1----30.32- 45.1 51.8----
2024-02-21 09:36 am N 13.0 18.1----30.32- 44.8 52.0----
2024-02-21 09:30 am N 13.0 18.1----30.32- 44.4 52.0----
2024-02-21 09:24 am N 12.0 15.9----30.32- 44.4 52.0----
2024-02-21 09:18 am N 14.0 19.0----30.32- 43.7 52.0----
2024-02-21 09:12 amNNW 12.0 15.9----30.32- 43.3 51.8----
2024-02-21 09:06 am N 11.1 15.0----30.32- 43.2 51.8----
2024-02-21 09:00 am N 12.0 15.9----30.32+0.04 42.6 51.8----
2024-02-21 08:54 am N 12.0 15.0----30.32- 42.3 51.8----
2024-02-21 08:48 am N 12.0 15.9----30.32- 41.9 51.6----
2024-02-21 08:42 am N 14.0 17.1----30.32- 41.4 51.6----
2024-02-21 08:36 am N 13.0 17.1----30.32- 41.2 52.0----
2024-02-21 08:30 am N 13.0 18.1----30.32- 41.0 51.8----
2024-02-21 08:24 am N 11.1 15.9----30.32- 40.8 52.0----
2024-02-21 08:18 am N 11.1 15.9----30.32- 40.6 52.0----
2024-02-21 08:12 am N 13.0 15.9----30.32- 40.3 52.0----
2024-02-21 08:06 am N 14.0 18.1----30.31- 39.9 52.2----
2024-02-21 08:00 am N 14.0 18.1----30.31+0.05 40.1 52.2----
2024-02-21 07:54 am N 15.0 20.0----30.31- 39.7 52.2----
2024-02-21 07:48 am N 15.0 18.1----30.31- 39.6 52.2----
2024-02-21 07:42 am N 13.0 17.1----30.30- 39.4 52.0----
2024-02-21 07:36 am N 13.0 18.1----30.30- 39.4 52.0----
2024-02-21 07:30 am N 14.0 17.1----30.30- 39.6 52.2----
2024-02-21 07:24 am N 14.0 19.0----30.30- 39.2 52.2----
2024-02-21 07:18 am N 15.9 20.0----30.30- 39.4 52.2----
2024-02-21 07:12 am N 13.0 17.1----30.30- 39.2 52.2----
2024-02-21 07:06 am N 13.0 17.1----30.30- 39.0 52.0----
2024-02-21 07:00 am N 12.0 15.0----30.30+0.04 39.0 52.2----
2024-02-21 06:54 am N 11.1 15.0----30.30- 38.8 52.2----
2024-02-21 06:48 amNNW 12.0 17.1----30.30- 38.8 52.2----
2024-02-21 06:42 am N 11.1 15.9----30.30- 38.8 52.2----
2024-02-21 06:36 am N 12.0 15.9----30.30- 38.7 52.2----
2024-02-21 06:30 am N 13.0 18.1----30.29- 38.8 52.2----
2024-02-21 06:24 am N 14.0 18.1----30.29- 38.8 52.3----
2024-02-21 06:18 am N 14.0 17.1----30.29- 39.2 52.2----
2024-02-21 06:12 am N 15.0 17.1----30.29- 39.4 52.2----
2024-02-21 06:06 am N 14.0 20.0----30.28- 39.6 52.3----
2024-02-21 06:00 am N 15.0 18.1----30.28+0.01 39.4 52.3----
2024-02-21 05:54 am N 12.0 18.1----30.28- 39.6 52.3----
2024-02-21 05:48 am N 14.0 17.1----30.28- 39.4 52.3----
2024-02-21 05:42 am N 15.0 17.1----30.28- 39.6 52.3----
2024-02-21 05:36 am N 14.0 15.9----30.28- 39.6 52.3----
2024-02-21 05:30 am N 14.0 15.9----30.27- 39.6 52.3----
2024-02-21 05:24 am N 15.0 19.0----30.27- 39.4 52.2----
2024-02-21 05:18 am N 15.0 18.1----30.27- 39.2 52.3----
2024-02-21 05:12 am N 14.0 19.0----30.27- 39.4 52.3----
2024-02-21 05:06 am N 14.0 17.1----30.27- 39.2 52.3----
2024-02-21 05:00 am N 13.0 18.1----30.26-0.02 39.4 52.3----
2024-02-21 04:54 am N 14.0 18.1----30.26- 39.4 52.3----
2024-02-21 04:48 am N 14.0 17.1----30.26- 39.4 52.3----
2024-02-21 04:42 am N 14.0 18.1----30.27- 39.4 52.3----
2024-02-21 04:36 am N 12.0 18.1----30.26- 39.6 52.3----
2024-02-21 04:30 am N 14.0 17.1----30.26- 39.2 52.3----
2024-02-21 04:24 am N 15.0 19.0----30.26- 39.2 52.3----
2024-02-21 04:18 am N 15.0 20.0----30.26- 39.4 52.3----
2024-02-21 04:12 am N 15.9 19.0----30.26- 39.4 52.3----
2024-02-21 04:06 am N 15.0 18.1----30.26- 39.7 52.3----
2024-02-21 04:00 am N 13.0 17.1----30.26-0.03 39.6 52.3----
2024-02-21 03:54 am N 13.0 18.1----30.27- 39.7 52.3----
2024-02-21 03:48 am N 15.0 17.1----30.27- 39.7 52.3----
2024-02-21 03:42 am N 13.0 17.1----30.27- 39.9 52.3----
2024-02-21 03:36 am N 14.0 15.9----30.27- 39.7 52.3----
2024-02-21 03:30 am N 14.0 18.1----30.27- 39.9 52.3----
2024-02-21 03:24 am N 13.0 18.1----30.27- 39.9 52.3----
2024-02-21 03:18 am N 15.0 18.1----30.27- 39.9 52.3----
2024-02-21 03:12 am N 13.0 18.1----30.27- 40.1 52.3----
2024-02-21 03:06 am N 13.0 17.1----30.27- 39.9 52.5----
2024-02-21 03:00 am N 14.0 18.1----30.27-0.01 40.1 52.7----
2024-02-21 02:54 am N 14.0 20.0----30.27- 40.1 52.5----
2024-02-21 02:48 am N 14.0 17.1----30.27- 40.3 52.7----
2024-02-21 02:42 am N 13.0 18.1----30.27- 40.3 52.7----
2024-02-21 02:36 am N 15.9 19.0----30.28- 40.3 52.5----
2024-02-21 02:30 am N 13.0 19.0----30.28- 40.3 52.5----
2024-02-21 02:24 am N 12.0 20.0----30.28- 40.5 52.5----
2024-02-21 02:18 am N 14.0 18.1----30.28- 40.5 52.3----
2024-02-21 02:12 am N 15.0 20.0----30.28- 40.5 52.5----
2024-02-21 02:06 am N 13.0 19.0----30.29- 40.5 52.3----
2024-02-21 02:00 am N 17.1 20.0----30.29+0.01- 52.5----
2024-02-21 01:54 am N 14.0 20.0----30.29-- 52.3----
2024-02-21 01:48 am N 15.0 18.1----30.29- 40.6 52.5----
2024-02-21 01:42 am N 12.0 17.1----30.29- 40.8 52.5----
2024-02-21 01:36 am N 14.0 17.1----30.29- 40.8 52.7----
2024-02-21 01:30 am N 13.0 17.1----30.29- 41.0 52.7----
2024-02-21 01:24 am N 14.0 15.9----30.29- 41.2 52.7----
2024-02-21 01:18 am N 14.0 18.1----30.29- 41.4 52.7----
2024-02-21 01:12 am N 14.0 20.0----30.29- 41.4 52.7----
2024-02-21 01:06 am N 12.0 15.9----30.29- 41.4 52.7----
2024-02-21 01:00 am N 13.0 17.1----30.29+0.00 41.5 52.3----
2024-02-21 12:54 am N 13.0 19.0----30.29- 41.5 52.7----
2024-02-21 12:48 am N 13.0 15.9----30.29- 41.7 52.7----
2024-02-21 12:42 am N 11.1 15.0----30.29- 41.9 52.7----
2024-02-21 12:36 am N 12.0 15.0----30.29- 41.9 52.9----
2024-02-21 12:30 am N 13.0 17.1----30.28- 41.9 52.9----
2024-02-21 12:24 am N 14.0 17.1----30.28- 42.1 52.7----
2024-02-21 12:18 am N 14.0 17.1----30.28- 42.1 52.9----
2024-02-21 12:12 am N 14.0 17.1----30.28- 42.3 52.7----
2024-02-21 12:06 am N 13.0 15.9----30.28- 42.4 52.9----
2024-02-21 12:00 am N 13.0 17.1----30.28+0.00 42.6 52.9----
2024-02-20 11:54 pm N 13.0 17.1----30.28- 42.8 52.7----
2024-02-20 11:48 pm N 13.0 15.9----30.28- 42.8 52.9----
2024-02-20 11:42 pm N 13.0 15.0----30.28- 43.2 52.7----
2024-02-20 11:36 pm N 9.9 13.0----30.28- 43.3 52.9----
2024-02-20 11:30 pm N 11.1 14.0----30.28- 43.7 52.7----
2024-02-20 11:24 pm N 12.0 13.0----30.28- 43.7 52.9----
2024-02-20 11:18 pm N 12.0 14.0----30.28- 44.1 52.9----
2024-02-20 11:12 pm N 9.9 14.0----30.28- 44.2 53.1----
2024-02-20 11:06 pm N 13.0 15.0----30.28- 44.4 53.1----
2024-02-20 11:00 pm N 11.1 15.9----30.28+0.00 44.6 52.9----
2024-02-20 10:54 pm N 12.0 14.0----30.27- 44.8 52.7----